TimeCST,TemperatureF,Dew PointF,Humidity,Sea Level PressureIn,VisibilityMPH,Wind Direction,Wind SpeedMPH,Gust SpeedMPH,PrecipitationIn,Events,Conditions,WindDirDegrees,DateUTC
12:06 AM,42.8,33.8,70,30.27,10.0,North,10.4,-,N/A,,Scattered Clouds,360,2013-01-18 06:06:00
12:53 AM,41.0,34.0,76,30.29,10.0,North,8.1,-,N/A,,Clear,360,2013-01-18 06:53:00
1:53 AM,41.0,34.0,76,30.31,10.0,North,4.6,-,N/A,,Overcast,360,2013-01-18 07:53:00
2:24 AM,39.2,33.8,81,30.31,10.0,North,5.8,-,N/A,,Scattered Clouds,360,2013-01-18 08:24:00
2:53 AM,39.9,34.0,79,30.31,10.0,North,6.9,-,N/A,,Clear,360,2013-01-18 08:53:00
3:53 AM,39.0,34.0,82,30.32,10.0,North,8.1,-,N/A,,Clear,10,2013-01-18 09:53:00
4:53 AM,37.9,33.1,83,30.34,10.0,North,5.8,-,N/A,,Clear,360,2013-01-18 10:53:00
5:53 AM,37.0,33.1,86,30.37,10.0,North,5.8,-,N/A,,Clear,360,2013-01-18 11:53:00
6:53 AM,36.0,33.1,89,30.40,10.0,North,4.6,-,N/A,,Clear,360,2013-01-18 12:53:00
7:53 AM,42.1,34.0,73,30.43,10.0,NNE,8.1,-,N/A,,Clear,20,2013-01-18 13:53:00
8:53 AM,46.0,35.1,66,30.46,10.0,NE,9.2,-,N/A,,Clear,40,2013-01-18 14:53:00
9:53 AM,50.0,36.0,59,30.47,10.0,NNE,12.7,-,N/A,,Clear,30,2013-01-18 15:53:00
10:53 AM,53.1,34.0,48,30.46,10.0,NE,13.8,20.7,N/A,,Clear,40,2013-01-18 16:53:00
11:53 AM,55.0,33.1,43,30.43,10.0,NE,9.2,17.3,N/A,,Clear,50,2013-01-18 17:53:00
12:53 PM,57.0,30.9,37,30.41,10.0,ENE,10.4,16.1,N/A,,Clear,60,2013-01-18 18:53:00
1:53 PM,57.9,30.0,35,30.40,10.0,NNE,6.9,-,N/A,,Clear,30,2013-01-18 19:53:00
2:53 PM,59.0,28.9,32,30.39,10.0,NE,8.1,-,N/A,,Clear,40,2013-01-18 20:53:00
3:53 PM,57.9,30.0,35,30.39,10.0,NE,10.4,-,N/A,,Clear,50,2013-01-18 21:53:00
4:53 PM,54.0,30.9,41,30.41,10.0,NE,4.6,-,N/A,,Clear,50,2013-01-18 22:53:00
5:53 PM,51.1,32.0,48,30.42,10.0,Calm,Calm,-,N/A,,Clear,0,2013-01-18 23:53:00
6:53 PM,46.9,34.0,61,30.43,10.0,ENE,3.5,-,N/A,,Clear,60,2013-01-19 00:53:00
7:53 PM,46.0,32.0,58,30.43,10.0,NE,3.5,-,N/A,,Clear,40,2013-01-19 01:53:00
8:53 PM,45.0,32.0,60,30.43,10.0,ENE,3.5,-,N/A,,Clear,60,2013-01-19 02:53:00
9:53 PM,44.1,32.0,63,30.41,10.0,ENE,5.8,-,N/A,,Clear,60,2013-01-19 03:53:00
10:53 PM,44.1,30.9,60,30.40,10.0,Calm,Calm,-,N/A,,Clear,0,2013-01-19 04:53:00
11:53 PM,39.0,32.0,76,30.40,10.0,Calm,Calm,-,N/A,,Scattered Clouds,0,2013-01-19 05:53:00